CYGFM03

Last updated on Thu Dec 18 2025 00:02:23 GMT+0000 (Coordinated Universal Time)

1 41891U 16078H 25351.39183417 .00018919 00000+0 32563-3 0 9996 2 41891 34.9438 352.8690 0009662 243.4739 116.4992 15.50092545500658
UTC large
Height (km)
Speed (km/s)
/
Latitude / Longitude
Inclination (degrees)
Orbital Period (minutes)
Azimuth
Elevation
Range (km)
Doppler Factor

Next 0 passes for location: London (51.5072 / 0.1276)

Sorry there are no passes over London.